ATLAS 5 CENTAUR DEB, 44649

Orbit data source: Space-Track

ATLAS 5 CENTAUR DEB, 44649 is space debris in HEO originally from a launch on Wed, 17 Oct 2018 UTC launched from the Air Force Eastern Test Range (AFETR). Debris objects in space refer to the collection of defunct objects orbiting the Earth. Examples of debris include non-operational satellites, rocket bodies, and fragments generated from explosions, collisions, or faulty payload assembly.

Loading next visibility...
Identifier
44649, 2018-079K
Orbit
HEO
Country
Flag of USUS
Related business
Flag of USUnited Launch Alliance/Lockheed Martin (US)
Manufacturer
ULA Decatur
Mission
Spacecraft
Bus & Motor
Unknown
Mass
Unknown
Launch date (UTC)
2018-10-17 (8 years ago)
Launch vehicle
Unknown
Launch site
Air Force Eastern Test Range (AFETR)
Object type
Payload
Rocket body
Debris
Shape & HBR
Unknown shape, 1.1 m
Radar Cross Section
Medium (>0.1 m² and <1 m²)

Expand to show TLE details & history
Last TLE update: 3 days ago

TLE from 3 days ago
0 ATLAS 5 CENTAUR DEB
1 44649U 18079K   26170.14771268 -.00000122  00000-0  00000-0 0  9990
2 44649  13.2975  27.3852 4740040 333.8519   8.4149  1.84003983 48446
Epoch: 2026-06-19T03:32Z
TLE epoch observation values (Epoch: 2026-06-19T03:32:42.375Z)
Latitude
0.00006°
Longitude
66.81649°
Altitude
8,952.681 km
Speed
6.151 km/s
True Right ascension
01h 49m 29s
True Declination
0° 00' 00"
Sunlit
Object was in daylight at epoch
Visualization orbit readout
Latitude
Unknown
Longitude
Unknown
Altitude
Unknown
Speed
Unknown
Apparent Right ascension
Unknown
Apparent Declination
Unknown
Sunlit
N/A
Visualization observer readout
Local Sidereal Time
21:37:52
Azimuth
Unknown
Elevation
Unknown
Doppler factor
Unknown
Orbital elements
Apogee altitude
35,090.066 km
Perigee altitude
8,419.726 km
Semi-major axis
28,133.033 km
Eccentricity
0.474
Inclination
13.2975°
RAAN
27.3852°
Arg. of periapsis
333.8519°
True anomaly
26.18301°
Mean anomaly
8.4149°
Eccentric anomaly
15.81766°
Mean motion
0.45996 °/min
Orbital period
782.68 mins
BSTAR
0
Loading maneuver chart data...
Computing Atmospheric mass density...

Documentation

Showing up to 5 results
|